Key West NAF, FL

5:24 PM EDT on September 26, 2017 (GMT -0400)
Key West Naval Air Station

Weather History for KNQX - November, 2012

Change the Weather History Date:

Wednesday, November 7, 2012

  Actual Average Record
Temperature  
Mean Temperature 74 °F -  
Max Temperature 77 °F 80 °F 88 °F (1958)
Min Temperature 71 °F 71 °F 62 °F (2010)
Cooling Degree Days 9    
Growing Degree Days 24 (Base 50)    
Moisture  
Dew Point 59 °F    
Average Humidity 58    
Maximum Humidity 75    
Minimum Humidity 50    
Precipitation  
Precipitation 0.00 in - - ()
Sea Level Pressure  
Sea Level Pressure 29.93 in    
Wind  
Wind Speed 11 mph (NNW)    
Max Wind Speed 16 mph    
Max Gust Speed 25 mph    
Visibility 10 miles    
Events      
Averages and records for this station are not official NWS values.
T = Trace of Precipitation, MM = Missing Value Source: NWS Daily Summary

Daily Weather History Graph

Daily Weather History Graph

Search for Another Location

Airport or City:

Trip Planner

Search our weather history database for the weather conditions in past years. The results will help you decide how hot, cold, wet, or windy it might be!

Date:

Astronomy

Nov. 07, 2012 Rise Set
Actual Time 6:37 AM EST 5:42 PM EST
Civil Twilight 6:13 AM EST 6:06 PM EST
Nautical Twilight 5:46 AM EST 6:33 PM EST
Astronomical Twilight 5:19 AM EST 7:00 PM EST
Moon 12:13 AM EST (11/7) 1:12 PM EST (11/7)
Length of Visible Light 11h 52m
Length of Day
11h 05m
Last Quarter, 43% of the Moon is Illuminated
Nov 7
Last Quarter
Nov 13
New
Nov 20
First Quarter
Nov 28
Full
Dec 6
Last Quarter

Hourly Weather History & Observations

Time (EST) Temp. Dew Point Humidity Pressure Visibility Wind Dir Wind Speed Gust Speed Precip Events Conditions
12:53 AM - - N/A% 29.89 in 10.0 mi WNW 8.1 mph - N/A   Clear
1:53 AM - - N/A% 29.88 in 10.0 mi NW 9.2 mph - N/A   Partly Cloudy
2:53 AM - - N/A% 29.87 in 10.0 mi NW 9.2 mph - N/A   Clear
3:53 AM - - N/A% 29.88 in 10.0 mi NW 9.2 mph - N/A   Clear
4:53 AM - - N/A% 29.89 in 10.0 mi WNW 8.1 mph - N/A   Clear
5:53 AM 73.4 °F 64.9 °F 75% 29.90 in 10.0 mi NNW 11.5 mph - N/A   Scattered Clouds
6:53 AM 73.4 °F 64.9 °F 75% 29.92 in 10.0 mi NW 12.7 mph - N/A   Mostly Cloudy
7:53 AM 75.2 °F 60.1 °F 59% 29.94 in 10.0 mi NW 16.1 mph 25.3 mph N/A   Mostly Cloudy
8:53 AM 75.2 °F 59.0 °F 57% 29.96 in 10.0 mi NNW 16.1 mph - N/A   Mostly Cloudy
9:53 AM 77.0 °F 57.0 °F 50% 29.98 in 10.0 mi NW 13.8 mph - N/A   Scattered Clouds
10:53 AM 77.0 °F 57.0 °F 50% 29.97 in 10.0 mi NNW 12.7 mph - N/A   Scattered Clouds
11:53 AM 77.0 °F 57.0 °F 50% 29.95 in 10.0 mi NW 11.5 mph 21.9 mph N/A   Mostly Cloudy
12:53 PM 77.0 °F 57.0 °F 50% 29.92 in 10.0 mi NW 16.1 mph 20.7 mph N/A   Mostly Cloudy
1:53 PM 77.0 °F 57.9 °F 52% 29.91 in 10.0 mi NW 13.8 mph - N/A   Mostly Cloudy
2:32 PM 77.0 °F 57.2 °F 50% 29.90 in 10.0 mi North 15.0 mph - N/A   Mostly Cloudy
2:53 PM 77.0 °F 57.0 °F 50% 29.91 in 10.0 mi North 15.0 mph - N/A   Mostly Cloudy
3:53 PM 77.0 °F 61.0 °F 58% 29.91 in 10.0 mi North 13.8 mph 20.7 mph N/A   Mostly Cloudy
4:53 PM 75.2 °F 60.1 °F 59% 29.92 in 10.0 mi North 10.4 mph - N/A   Mostly Cloudy
5:53 PM 73.4 °F 60.1 °F 63% 29.93 in 10.0 mi North 11.5 mph - N/A   Mostly Cloudy
6:53 PM 71.6 °F 60.1 °F 67% 29.95 in 10.0 mi NNW 11.5 mph - N/A   Mostly Cloudy
7:53 PM 71.6 °F 57.9 °F 62% 29.96 in 10.0 mi NNW 10.4 mph - N/A   Mostly Cloudy
8:53 PM 71.6 °F 57.9 °F 62% 29.99 in 10.0 mi North 10.4 mph - N/A   Mostly Cloudy
9:53 PM 71.6 °F 57.9 °F 62% 29.99 in 10.0 mi NNW 9.2 mph - N/A   Mostly Cloudy
10:53 PM - - N/A% 30.00 in 10.0 mi North 8.1 mph - N/A   Mostly Cloudy
11:53 PM - - N/A% 30.00 in 10.0 mi NNW 10.4 mph - N/A   Mostly Cloudy